QPF
0.00 0.00 0.00 0.00 0.00 0.00 0.00 0.00 0.00 0.00 0.00 0.00 0.00 0.00 0.00 0.00 0.00 0.00 0.00 0.00 0.00 0.00 0.00 0.00 0.00 0.00 0.00 0.00 0.00 0.00 0.00 0.00 0.00 0.00 0.00 0.00 0.00 0.00 0.00 0.00 0.01 0.00 0.00
0.00 0.00 0.00 0.00 0.00 0.00 0.00 0.00 0.00 0.00 0.00 0.00 0.00 0.00 0.00 0.00 0.00 0.00 0.00 0.00 0.00 0.00 0.00 0.00 0.00 0.00 0.00 0.00 0.00 0.00 0.00 0.00 0.00 0.00 0.00 0.00 0.00 0.00 0.00 0.00 0.01 0.00 0.00
0.00 0.00 0.00 0.00 0.00 0.00 0.00 0.00 0.00 0.00 0.00 0.00 0.00 0.00 0.00 0.00 0.00 0.00 0.00 0.00 0.00 0.00 0.00 0.00 0.00 0.00 0.00 0.00 0.00 0.00 0.00 0.00 0.00 0.00 0.00 0.00 0.00 0.00 0.00 0.00 0.00 0.00 0.00
0.00 0.00 0.00 0.00 0.00 0.00 0.00 0.00 0.00 0.00 0.00 0.00 0.00 0.00 0.00 0.00 0.00 0.00 0.00 0.00 0.00 0.00 0.00 0.00 0.00 0.00 0.00 0.00 0.00 0.00 0.00 0.00 0.00 0.00 0.00 0.02 0.00 0.00 0.00 0.00 0.00 0.00 0.00
0.00 0.00 0.00 0.00 0.00 0.00 0.00 0.00 0.00 0.00 0.00 0.00 0.00 0.00 0.00 0.00 0.01 0.01 0.01 0.00 0.00 0.00 0.00 0.00 0.00 0.00 0.00 0.00 0.00 0.00 0.00 0.00 0.00 0.00 0.00 0.00 0.01 0.00 0.00 0.00 0.00 0.00 0.00
0.00 0.00 0.00 0.00 0.00 0.00 0.00 0.00 0.00 0.00 0.00 0.00 0.00 0.00 0.00 0.01 0.01 0.01 0.01 0.00 0.00 0.00 0.00 0.00 0.00 0.00 0.00 0.00 0.00 0.00 0.00 0.00 0.00 0.00 0.00 0.00 0.03 0.03 0.01 0.01 0.01 0.01 0.00
0.00 0.00 0.00 0.00 0.00 0.00 0.00 0.00 0.00 0.00 0.00 0.00 0.00 0.00 0.00 0.00 0.00 0.00 0.00 0.00 0.00 0.00 0.00 0.00 0.00 0.00 0.00 0.00 0.00 0.00 0.00 0.00 0.00 0.00 0.00 0.00 0.03 0.04 0.03 0.04 0.05 0.04 0.03
0.00 0.00 0.00 0.00 0.00 0.00 0.00 0.00 0.00 0.00 0.00 0.00 0.00 0.00 0.00 0.00 0.00 0.00 0.00 0.00 0.00 0.00 0.00 0.00 0.00 0.00 0.00 0.00 0.00 0.00 0.00 0.00 0.00 0.00 0.00 0.00 0.02 0.02 0.05 0.06 0.05 0.06 0.05
0.00 0.00 0.00 0.00 0.00 0.00 0.00 0.00 0.00 0.00 0.00 0.00 0.00 0.00 0.00 0.00 0.00 0.00 0.00 0.00 0.00 0.00 0.00 0.00 0.00 0.00 0.00 0.00 0.00 0.00 0.00 0.00 0.00 0.00 0.00 0.00 0.01 0.02 0.04 0.04 0.03 0.04 0.04
0.00 0.00 0.00 0.00 0.00 0.00 0.00 0.00 0.00 0.00 0.00 0.00 0.00 0.00 0.00 0.00 0.00 0.00 0.00 0.00 0.00 0.00 0.00 0.00 0.00 0.00 0.00 0.00 0.00 0.00 0.00 0.00 0.00 0.00 0.00 0.00 0.01 0.02 0.02 0.01 0.01 0.02 0.03
0.00 0.00 0.00 0.00 0.00 0.00 0.00 0.00 0.00 0.00 0.00 0.00 0.00 0.00 0.00 0.00 0.01 0.02 0.00 0.01 0.01 0.01 0.00 0.00 0.00 0.01 0.00 0.00 0.02 0.03 0.01 0.00 0.00 0.00 0.00 0.01 0.01 0.02 0.01 0.00 0.00 0.01 0.02
0.00 0.00 0.00 0.00 0.00 0.00 0.00 0.00 0.00 0.00 0.00 0.00 0.01 0.03 0.03 0.07 0.07 0.02 0.01 0.02 0.01 0.01 0.00 0.00 0.01 0.01 0.01 0.02 0.16 0.19 0.02 0.00 0.00 0.01 0.00 0.00 0.00 0.00 0.00 0.00 0.01 0.01 0.01
0.00 0.00 0.00 0.00 0.00 0.00 0.00 0.00 0.00 0.00 0.01 0.01 0.01 0.04 0.08 0.08 0.03 0.00 0.00 0.01 0.01 0.01 0.01 0.04 0.06 0.03 0.05 0.08 0.08 0.10 0.02 0.01 0.01 0.01 0.01 0.02 0.01 0.00 0.00 0.00 0.01 0.02 0.01
0.00 0.00 0.00 0.00 0.00 0.00 0.00 0.00 0.00 0.00 0.00 0.00 0.02 0.01 0.04 0.05 0.02 0.01 0.00 0.01 0.03 0.03 0.05 0.06 0.11 0.07 0.06 0.04 0.03 0.03 0.02 0.02 0.01 0.01 0.03 0.02 0.01 0.00 0.00 0.00 0.00 0.01 0.01
0.00 0.00 0.00 0.00 0.00 0.00 0.00 0.01 0.00 0.00 0.00 0.00 0.00 0.00 0.01 0.02 0.01 0.01 0.00 0.00 0.00 0.01 0.03 0.05 0.02 0.05 0.06 0.03 0.01 0.00 0.00 0.01 0.01 0.01 0.02 0.01 0.00 0.00 0.00 0.00 0.00 0.00 0.00
0.00 0.00 0.00 0.00 0.00 0.00 0.00 0.00 0.00 0.00 0.00 0.00 0.00 0.00 0.00 0.00 0.00 0.01 0.01 0.02 0.01 0.01 0.01 0.02 0.02 0.06 0.06 0.05 0.03 0.00 0.00 0.00 0.00 0.01 0.01 0.01 0.00 0.00 0.00 0.00 0.00 0.00 0.00
0.00 0.00 0.00 0.00 0.00 0.00 0.00 0.00 0.00 0.00 0.00 0.00 0.00 0.00 0.00 0.00 0.00 0.01 0.01 0.03 0.04 0.04 0.06 0.05 0.06 0.09 0.08 0.10 0.08 0.04 0.02 0.01 0.00 0.00 0.00 0.00 0.00 0.01 0.00 0.00 0.01 0.01 0.00
0.00 0.00 0.00 0.00 0.00 0.00 0.00 0.00 0.00 0.00 0.00 0.00 0.00 0.00 0.00 0.00 0.01 0.06 0.06 0.05 0.10 0.09 0.11 0.14 0.14 0.15 0.17 0.17 0.15 0.06 0.02 0.01 0.00 0.00 0.00 0.00 0.00 0.00 0.00 0.01 0.02 0.01 0.01
0.00 0.00 0.00 0.00 0.00 0.01 0.01 0.01 0.00 0.00 0.00 0.00 0.00 0.00 0.00 0.01 0.04 0.09 0.09 0.12 0.14 0.14 0.16 0.14 0.22 0.23 0.23 0.20 0.15 0.08 0.02 0.01 0.00 0.00 0.00 0.00 0.00 0.00 0.00 0.02 0.01 0.00 0.01
0.00 0.00 0.00 0.01 0.03 0.07 0.10 0.07 0.04 0.02 0.01 0.00 0.00 0.01 0.02 0.05 0.07 0.12 0.13 0.14 0.15 0.16 0.17 0.19 0.23 0.24 0.22 0.19 0.10 0.05 0.03 0.01 0.00 0.00 0.00 0.00 0.00 0.00 0.00 0.00 0.01 0.01 0.02
0.00 0.00 0.02 0.07 0.15 0.18 0.18 0.15 0.14 0.13 0.11 0.06 0.03 0.03 0.03 0.05 0.09 0.14 0.14 0.17 0.18 0.18 0.18 0.20 0.20 0.20 0.19 0.20 0.15 0.08 0.02 0.00 0.00 0.00 0.00 0.00 0.00 0.00 0.00 0.00 0.02 0.04 0.06
0.01 0.01 0.05 0.14 0.22 0.22 0.24 0.25 0.28 0.32 0.21 0.12 0.10 0.09 0.07 0.09 0.11 0.14 0.17 0.20 0.23 0.23 0.22 0.21 0.21 0.21 0.18 0.16 0.15 0.11 0.05 0.01 0.00 0.00 0.00 0.00 0.00 0.00 0.00 0.00 0.01 0.03 0.05
0.02 0.02 0.06 0.12 0.18 0.22 0.29 0.32 0.31 0.33 0.23 0.20 0.20 0.20 0.17 0.16 0.16 0.18 0.21 0.23 0.25 0.25 0.24 0.23 0.24 0.24 0.20 0.15 0.14 0.15 0.10 0.06 0.02 0.00 0.00 0.00 0.01 0.01 0.00 0.01 0.01 0.04 0.05
0.01 0.01 0.04 0.06 0.09 0.13 0.20 0.25 0.28 0.28 0.24 0.28 0.36 0.34 0.28 0.24 0.20 0.19 0.21 0.24 0.26 0.24 0.21 0.19 0.20 0.22 0.22 0.20 0.20 0.20 0.17 0.13 0.08 0.02 0.01 0.02 0.05 0.07 0.08 0.05 0.03 0.03 0.07
0.00 0.00 0.01 0.02 0.03 0.05 0.09 0.14 0.19 0.22 0.25 0.27 0.26 0.24 0.19 0.14 0.10 0.11 0.16 0.21 0.23 0.22 0.19 0.17 0.18 0.19 0.22 0.21 0.20 0.18 0.18 0.16 0.15 0.10 0.05 0.08 0.11 0.13 0.15 0.12 0.10 0.09 0.10
0.00 0.00 0.00 0.00 0.00 0.02 0.03 0.06 0.10 0.12 0.15 0.17 0.14 0.13 0.10 0.08 0.06 0.06 0.08 0.12 0.16 0.17 0.18 0.18 0.19 0.19 0.19 0.20 0.18 0.17 0.15 0.13 0.14 0.15 0.10 0.11 0.12 0.17 0.18 0.17 0.17 0.19 0.15
MSLP
1009.04 1009.14 1009.44 1009.92 1010.54 1011.20 1011.80 1012.28 1012.61 1012.80 1012.91 1013.01 1013.17 1013.40 1013.73 1014.11 1014.49 1014.83 1015.07 1015.20 1015.24 1015.22 1015.19 1015.18 1015.22 1015.30 1015.43 1015.56 1015.68 1015.77 1015.83 1015.87 1015.90 1015.95 1016.02 1016.11 1016.23 1016.35 1016.46 1016.55 1016.63 1016.68 1016.72
1008.80 1009.06 1009.51 1010.14 1010.86 1011.56 1012.16 1012.59 1012.85 1012.97 1013.02 1013.10 1013.25 1013.52 1013.90 1014.34 1014.77 1015.13 1015.38 1015.50 1015.52 1015.47 1015.41 1015.38 1015.40 1015.48 1015.60 1015.73 1015.84 1015.91 1015.94 1015.95 1015.96 1015.98 1016.04 1016.13 1016.26 1016.40 1016.53 1016.65 1016.74 1016.81 1016.87
1008.58 1009.00 1009.62 1010.37 1011.18 1011.92 1012.51 1012.91 1013.10 1013.16 1013.16 1013.21 1013.35 1013.64 1014.03 1014.49 1014.94 1015.31 1015.55 1015.65 1015.65 1015.59 1015.52 1015.49 1015.52 1015.62 1015.74 1015.87 1015.96 1016.00 1015.99 1015.96 1015.92 1015.91 1015.95 1016.04 1016.17 1016.33 1016.49 1016.64 1016.77 1016.87 1016.96
1008.38 1008.95 1009.70 1010.57 1011.44 1012.22 1012.81 1013.17 1013.33 1013.35 1013.31 1013.33 1013.47 1013.75 1014.14 1014.59 1015.02 1015.37 1015.58 1015.67 1015.65 1015.59 1015.54 1015.54 1015.61 1015.73 1015.87 1016.00 1016.07 1016.07 1016.02 1015.93 1015.84 1015.78 1015.79 1015.86 1015.99 1016.16 1016.35 1016.54 1016.70 1016.85 1016.98
1008.20 1008.87 1009.72 1010.67 1011.60 1012.40 1012.99 1013.34 1013.48 1013.48 1013.45 1013.46 1013.60 1013.86 1014.24 1014.66 1015.05 1015.35 1015.53 1015.59 1015.58 1015.54 1015.52 1015.57 1015.68 1015.84 1016.01 1016.13 1016.18 1016.15 1016.04 1015.88 1015.73 1015.63 1015.59 1015.64 1015.76 1015.94 1016.14 1016.35 1016.55 1016.74 1016.92
1008.04 1008.78 1009.69 1010.68 1011.63 1012.44 1013.03 1013.39 1013.54 1013.56 1013.54 1013.57 1013.72 1013.98 1014.32 1014.70 1015.04 1015.29 1015.43 1015.47 1015.46 1015.44 1015.48 1015.58 1015.75 1015.95 1016.14 1016.26 1016.29 1016.21 1016.05 1015.84 1015.62 1015.46 1015.39 1015.40 1015.50 1015.67 1015.87 1016.09 1016.32 1016.54 1016.75
1007.94 1008.69 1009.60 1010.59 1011.54 1012.34 1012.93 1013.30 1013.48 1013.54 1013.57 1013.65 1013.81 1014.08 1014.40 1014.74 1015.02 1015.22 1015.31 1015.34 1015.33 1015.34 1015.41 1015.57 1015.79 1016.03 1016.23 1016.35 1016.36 1016.24 1016.02 1015.76 1015.49 1015.28 1015.17 1015.15 1015.22 1015.37 1015.57 1015.78 1016.01 1016.24 1016.48
1007.90 1008.63 1009.51 1010.45 1011.36 1012.13 1012.72 1013.10 1013.32 1013.43 1013.52 1013.65 1013.86 1014.13 1014.45 1014.75 1014.98 1015.13 1015.19 1015.19 1015.18 1015.21 1015.32 1015.51 1015.76 1016.02 1016.24 1016.35 1016.33 1016.17 1015.92 1015.61 1015.30 1015.06 1014.91 1014.87 1014.92 1015.05 1015.23 1015.43 1015.65 1015.87 1016.11
1007.95 1008.63 1009.44 1010.31 1011.15 1011.87 1012.42 1012.81 1013.06 1013.23 1013.38 1013.57 1013.81 1014.11 1014.41 1014.69 1014.89 1015.00 1015.02 1015.00 1014.99 1015.03 1015.15 1015.36 1015.62 1015.89 1016.09 1016.19 1016.14 1015.96 1015.68 1015.35 1015.03 1014.77 1014.61 1014.55 1014.59 1014.71 1014.87 1015.05 1015.25 1015.45 1015.66
1008.07 1008.68 1009.41 1010.19 1010.93 1011.57 1012.08 1012.46 1012.72 1012.92 1013.12 1013.36 1013.64 1013.95 1014.26 1014.51 1014.69 1014.77 1014.77 1014.74 1014.72 1014.75 1014.87 1015.08 1015.33 1015.58 1015.77 1015.85 1015.79 1015.60 1015.31 1014.97 1014.65 1014.40 1014.24 1014.19 1014.23 1014.35 1014.50 1014.67 1014.84 1015.02 1015.20
1008.22 1008.77 1009.40 1010.07 1010.72 1011.27 1011.72 1012.05 1012.30 1012.52 1012.74 1013.00 1013.30 1013.63 1013.93 1014.18 1014.34 1014.41 1014.40 1014.36 1014.33 1014.36 1014.46 1014.65 1014.88 1015.11 1015.28 1015.35 1015.28 1015.09 1014.81 1014.49 1014.19 1013.95 1013.82 1013.78 1013.84 1013.97 1014.13 1014.29 1014.46 1014.61 1014.75
1008.32 1008.82 1009.37 1009.95 1010.49 1010.95 1011.32 1011.60 1011.82 1012.02 1012.24 1012.50 1012.80 1013.12 1013.42 1013.67 1013.83 1013.90 1013.90 1013.86 1013.82 1013.84 1013.93 1014.09 1014.30 1014.51 1014.66 1014.72 1014.67 1014.50 1014.24 1013.95 1013.68 1013.47 1013.36 1013.35 1013.43 1013.57 1013.75 1013.93 1014.09 1014.23 1014.35
1008.31 1008.77 1009.27 1009.77 1010.22 1010.60 1010.89 1011.11 1011.28 1011.44 1011.63 1011.86 1012.14 1012.45 1012.74 1012.99 1013.17 1013.26 1013.27 1013.25 1013.22 1013.23 1013.31 1013.45 1013.64 1013.83 1013.98 1014.05 1014.02 1013.88 1013.66 1013.41 1013.17 1012.98 1012.88 1012.89 1012.98 1013.14 1013.34 1013.55 1013.73 1013.87 1013.98
1008.13 1008.58 1009.04 1009.49 1009.88 1010.20 1010.44 1010.60 1010.72 1010.82 1010.96 1011.15 1011.39 1011.67 1011.95 1012.20 1012.40 1012.52 1012.57 1012.57 1012.57 1012.59 1012.66 1012.79 1012.96 1013.15 1013.30 1013.40 1013.40 1013.31 1013.13 1012.91 1012.69 1012.51 1012.41 1012.41 1012.50 1012.66 1012.88 1013.10 1013.32 1013.48 1013.61
1007.80 1008.24 1008.69 1009.11 1009.47 1009.76 1009.96 1010.08 1010.16 1010.22 1010.30 1010.43 1010.62 1010.86 1011.12 1011.38 1011.60 1011.76 1011.86 1011.91 1011.94 1011.97 1012.05 1012.17 1012.34 1012.52 1012.70 1012.82 1012.86 1012.82 1012.68 1012.49 1012.27 1012.07 1011.94 1011.90 1011.95 1012.10 1012.31 1012.56 1012.80 1013.01 1013.16
1007.36 1007.80 1008.24 1008.65 1009.02 1009.31 1009.50 1009.61 1009.66 1009.68 1009.71 1009.78 1009.92 1010.11 1010.36 1010.62 1010.86 1011.07 1011.22 1011.32 1011.39 1011.45 1011.53 1011.65 1011.81 1012.00 1012.19 1012.34 1012.43 1012.42 1012.32 1012.13 1011.90 1011.66 1011.46 1011.35 1011.33 1011.43 1011.61 1011.86 1012.13 1012.38 1012.58
1006.94 1007.35 1007.78 1008.20 1008.58 1008.89 1009.11 1009.23 1009.28 1009.27 1009.26 1009.28 1009.36 1009.51 1009.72 1009.98 1010.25 1010.50 1010.71 1010.86 1010.96 1011.04 1011.13 1011.24 1011.39 1011.58 1011.78 1011.95 1012.07 1012.10 1012.02 1011.83 1011.56 1011.26 1010.97 1010.75 1010.64 1010.65 1010.77 1011.00 1011.28 1011.57 1011.83
1006.64 1007.01 1007.41 1007.83 1008.22 1008.56 1008.82 1008.97 1009.03 1009.02 1008.98 1008.95 1008.98 1009.08 1009.26 1009.52 1009.81 1010.09 1010.34 1010.53 1010.67 1010.77 1010.85 1010.94 1011.07 1011.24 1011.44 1011.62 1011.76 1011.81 1011.74 1011.54 1011.23 1010.85 1010.47 1010.13 1009.90 1009.80 1009.85 1010.02 1010.30 1010.61 1010.92
1006.57 1006.86 1007.21 1007.60 1008.00 1008.36 1008.66 1008.85 1008.94 1008.93 1008.86 1008.79 1008.77 1008.82 1008.97 1009.21 1009.51 1009.82 1010.10 1010.33 1010.49 1010.60 1010.66 1010.73 1010.83 1010.97 1011.14 1011.32 1011.46 1011.52 1011.45 1011.25 1010.90 1010.46 1009.98 1009.53 1009.17 1008.96 1008.91 1009.02 1009.27 1009.59 1009.93
1006.76 1006.94 1007.21 1007.54 1007.93 1008.30 1008.62 1008.85 1008.96 1008.95 1008.87 1008.76 1008.69 1008.69 1008.80 1009.02 1009.31 1009.64 1009.96 1010.21 1010.39 1010.49 1010.54 1010.57 1010.62 1010.72 1010.85 1011.01 1011.15 1011.22 1011.16 1010.95 1010.59 1010.11 1009.56 1009.01 1008.55 1008.23 1008.08 1008.12 1008.31 1008.61 1008.97
1007.18 1007.23 1007.39 1007.65 1007.98 1008.35 1008.68 1008.92 1009.04 1009.04 1008.94 1008.79 1008.67 1008.62 1008.69 1008.88 1009.16 1009.50 1009.83 1010.10 1010.30 1010.40 1010.43 1010.42 1010.43 1010.47 1010.57 1010.70 1010.83 1010.90 1010.86 1010.67 1010.32 1009.83 1009.24 1008.65 1008.11 1007.70 1007.47 1007.42 1007.55 1007.81 1008.15
1007.73 1007.65 1007.68 1007.84 1008.11 1008.44 1008.76 1009.00 1009.12 1009.11 1008.99 1008.81 1008.64 1008.54 1008.56 1008.71 1008.98 1009.31 1009.66 1009.95 1010.16 1010.27 1010.28 1010.25 1010.22 1010.22 1010.28 1010.38 1010.50 1010.59 1010.57 1010.42 1010.11 1009.65 1009.08 1008.47 1007.90 1007.44 1007.15 1007.03 1007.09 1007.29 1007.58
1008.26 1008.06 1007.98 1008.04 1008.24 1008.52 1008.81 1009.04 1009.15 1009.12 1008.98 1008.76 1008.54 1008.39 1008.36 1008.47 1008.71 1009.04 1009.39 1009.71 1009.94 1010.06 1010.08 1010.04 1009.98 1009.96 1009.99 1010.08 1010.19 1010.29 1010.32 1010.22 1009.97 1009.58 1009.06 1008.49 1007.94 1007.47 1007.13 1006.96 1006.95 1007.09 1007.31
1008.64 1008.36 1008.19 1008.17 1008.30 1008.53 1008.78 1008.99 1009.09 1009.04 1008.87 1008.62 1008.35 1008.15 1008.07 1008.14 1008.35 1008.66 1009.01 1009.34 1009.59 1009.74 1009.79 1009.76 1009.71 1009.68 1009.69 1009.77 1009.90 1010.02 1010.09 1010.06 1009.89 1009.58 1009.15 1008.66 1008.16 1007.71 1007.37 1007.17 1007.11 1007.17 1007.32
1008.80 1008.48 1008.26 1008.19 1008.27 1008.46 1008.68 1008.86 1008.95 1008.89 1008.70 1008.42 1008.11 1007.86 1007.72 1007.73 1007.90 1008.18 1008.53 1008.86 1009.14 1009.32 1009.41 1009.41 1009.39 1009.37 1009.39 1009.48 1009.61 1009.76 1009.87 1009.90 1009.82 1009.61 1009.28 1008.88 1008.46 1008.07 1007.75 1007.54 1007.44 1007.44 1007.51
1008.73 1008.41 1008.18 1008.10 1008.16 1008.32 1008.53 1008.70 1008.78 1008.71 1008.51 1008.20 1007.86 1007.56 1007.37 1007.32 1007.43 1007.66 1007.98 1008.31 1008.61 1008.82 1008.95 1009.00 1009.01 1009.03 1009.07 1009.17 1009.32 1009.49 1009.63 1009.72 1009.71 1009.59 1009.37 1009.07 1008.74 1008.42 1008.15 1007.96 1007.84 1007.80 1007.80
Thickness
5851 5843 5834 5830 5827 5824 5821 5818 5815 5812 5809 5805 5802 5799 5796 5792 5789 5787 5784 5781 5778 5776 5774 5772 5770 5769 5767 5765 5764 5762 5761 5760 5758 5756 5755 5754 5752 5752 5751 5751 5750 5750 5749
5855 5844 5836 5832 5828 5824 5821 5819 5815 5812 5809 5805 5802 5798 5795 5792 5789 5786 5783 5780 5778 5776 5773 5771 5769 5768 5766 5765 5763 5762 5761 5760 5758 5757 5756 5754 5753 5752 5751 5750 5751 5750 5749
5855 5844 5836 5832 5828 5824 5821 5818 5815 5812 5809 5805 5802 5798 5795 5792 5789 5786 5783 5780 5778 5775 5773 5770 5768 5767 5765 5764 5763 5762 5761 5760 5759 5758 5757 5756 5755 5754 5752 5750 5749 5748 5747
5854 5844 5838 5831 5828 5824 5820 5817 5814 5812 5809 5805 5802 5798 5795 5792 5789 5786 5783 5780 5778 5775 5773 5771 5768 5766 5764 5763 5762 5761 5760 5760 5760 5759 5759 5759 5758 5756 5754 5751 5749 5748 5747
5853 5845 5836 5831 5827 5823 5819 5816 5813 5811 5808 5805 5802 5798 5795 5792 5789 5787 5784 5781 5778 5776 5773 5771 5768 5766 5764 5763 5762 5761 5760 5760 5760 5760 5762 5764 5762 5758 5756 5754 5751 5749 5747
5853 5845 5835 5830 5826 5822 5818 5815 5812 5810 5807 5804 5801 5799 5796 5793 5790 5787 5784 5781 5779 5776 5774 5771 5769 5767 5765 5763 5761 5760 5760 5760 5760 5762 5765 5766 5764 5761 5759 5756 5753 5751 5749
5856 5846 5835 5830 5825 5821 5817 5814 5811 5809 5806 5803 5801 5798 5796 5793 5791 5788 5784 5781 5779 5776 5774 5772 5770 5768 5766 5764 5762 5761 5760 5759 5760 5763 5766 5768 5767 5763 5760 5758 5755 5753 5751
5860 5846 5835 5829 5824 5820 5816 5813 5810 5807 5805 5802 5800 5797 5795 5792 5790 5787 5784 5781 5779 5776 5774 5773 5771 5769 5767 5765 5763 5762 5760 5760 5762 5765 5768 5770 5769 5765 5762 5760 5757 5755 5753
5863 5847 5835 5829 5823 5819 5815 5811 5808 5805 5803 5801 5799 5796 5794 5791 5789 5786 5783 5781 5779 5777 5775 5773 5772 5770 5769 5767 5766 5764 5762 5761 5761 5764 5768 5772 5771 5768 5765 5762 5759 5757 5755
5860 5848 5838 5831 5825 5819 5814 5810 5807 5805 5802 5800 5798 5795 5793 5791 5789 5786 5784 5782 5780 5777 5776 5774 5773 5772 5771 5769 5768 5766 5765 5763 5763 5766 5769 5772 5772 5770 5767 5763 5761 5759 5757
5856 5849 5842 5835 5828 5822 5818 5813 5808 5805 5802 5799 5797 5795 5793 5792 5790 5788 5786 5784 5781 5779 5778 5776 5775 5774 5773 5772 5771 5769 5768 5767 5768 5770 5774 5774 5772 5770 5767 5765 5762 5760 5759
5849 5847 5846 5839 5832 5827 5825 5819 5811 5807 5804 5801 5800 5797 5794 5793 5794 5794 5792 5788 5784 5782 5780 5778 5777 5776 5774 5774 5775 5774 5771 5772 5772 5776 5778 5776 5773 5771 5768 5766 5764 5762 5760
5849 5846 5845 5841 5835 5831 5828 5822 5816 5814 5810 5805 5802 5801 5797 5796 5795 5796 5795 5790 5786 5784 5781 5781 5779 5777 5777 5778 5779 5779 5777 5778 5779 5780 5780 5776 5773 5771 5769 5767 5765 5763 5762
5846 5845 5844 5841 5835 5832 5830 5827 5822 5819 5816 5812 5807 5803 5801 5797 5797 5798 5797 5794 5790 5787 5785 5785 5783 5782 5781 5781 5781 5782 5781 5781 5782 5782 5781 5777 5774 5772 5770 5768 5766 5764 5763
5844 5843 5842 5839 5833 5829 5827 5825 5823 5821 5820 5816 5813 5807 5803 5799 5796 5797 5796 5795 5792 5791 5789 5786 5786 5785 5782 5782 5782 5782 5783 5782 5782 5782 5781 5779 5776 5774 5772 5770 5767 5765 5764
5843 5841 5840 5836 5831 5826 5822 5819 5819 5819 5818 5815 5814 5810 5805 5801 5799 5797 5795 5792 5790 5789 5788 5787 5786 5784 5781 5781 5780 5781 5781 5781 5781 5782 5781 5780 5778 5776 5774 5772 5770 5767 5765
5843 5841 5837 5833 5829 5822 5817 5814 5813 5814 5813 5812 5810 5808 5805 5801 5798 5795 5791 5789 5788 5787 5786 5784 5782 5780 5778 5777 5775 5776 5777 5779 5780 5781 5781 5780 5779 5777 5775 5773 5771 5768 5766
5841 5837 5834 5831 5825 5819 5813 5810 5809 5809 5809 5809 5808 5805 5803 5799 5795 5792 5789 5787 5786 5784 5781 5778 5776 5773 5770 5769 5767 5768 5771 5774 5777 5779 5780 5780 5779 5779 5777 5774 5771 5768 5766
5835 5831 5827 5824 5820 5814 5808 5804 5801 5802 5802 5802 5802 5801 5799 5796 5793 5789 5785 5783 5781 5778 5775 5772 5770 5767 5763 5760 5759 5761 5765 5769 5773 5777 5778 5780 5779 5778 5778 5775 5773 5770 5766
5827 5824 5819 5815 5811 5807 5801 5797 5795 5794 5795 5795 5794 5794 5793 5791 5789 5785 5781 5778 5775 5772 5769 5766 5762 5760 5757 5752 5751 5752 5758 5764 5768 5771 5774 5776 5776 5776 5776 5776 5773 5771 5767
5812 5810 5809 5805 5800 5795 5790 5787 5784 5783 5785 5786 5787 5787 5786 5784 5781 5778 5774 5770 5767 5764 5761 5759 5754 5751 5748 5745 5738 5738 5748 5758 5763 5769 5773 5773 5772 5772 5773 5773 5771 5769 5766
5794 5794 5795 5791 5787 5785 5782 5780 5779 5777 5777 5778 5779 5780 5780 5777 5773 5769 5764 5761 5758 5755 5753 5750 5746 5742 5740 5736 5729 5722 5726 5740 5753 5766 5769 5768 5767 5767 5767 5767 5767 5765 5764
5779 5780 5780 5777 5775 5774 5773 5771 5770 5768 5768 5768 5768 5767 5769 5767 5764 5759 5755 5752 5750 5747 5745 5743 5740 5734 5729 5727 5724 5718 5714 5719 5732 5747 5754 5758 5759 5759 5759 5760 5760 5760 5759
5770 5771 5770 5767 5765 5764 5763 5760 5757 5754 5754 5758 5759 5758 5758 5756 5752 5750 5747 5745 5743 5740 5738 5735 5734 5728 5722 5717 5717 5717 5716 5717 5714 5723 5736 5743 5747 5748 5749 5750 5751 5752 5752
5762 5762 5761 5759 5756 5754 5753 5751 5748 5747 5748 5750 5750 5749 5748 5747 5745 5742 5739 5736 5734 5732 5730 5727 5725 5721 5716 5711 5708 5707 5709 5712 5714 5710 5715 5724 5731 5736 5740 5741 5742 5743 5744
5756 5754 5753 5750 5747 5745 5743 5741 5739 5737 5737 5737 5737 5737 5737 5737 5736 5733 5730 5728 5725 5724 5722 5719 5717 5713 5709 5705 5702 5701 5700 5702 5705 5706 5708 5713 5717 5724 5731 5733 5734 5734 5735